Tracking 28522 objects as of 28-Feb-2024
HD Live streaming from Space Station
objects crossing your sky now

STARLINK-6122

Track STARLINK-6122 now!
10-day predictions
STARLINK-6122 is classified as:


NORAD ID: 56128
Int'l Code: 2023-046AN
Perigee: 565.6 km
Apogee: 566.8 km
Inclination: 43.0 °
Period: 95.8 minutes
Semi major axis: 6937 km
RCS: Unknown
Launch date: March 29, 2023
Source: United States (US)
Launch site: AIR FORCE EASTERN TEST RANGE (AFETR)
Your satellite tracking list
Your tracking list is empty




NASA's NSSDC Master Catalog

Two Line Element Set (TLE):
1 56128U 23046AN  24058.76376075 -.00000654  00000-0 -33354-4 0  9996
2 56128  43.0008 212.2874 0000838 253.0752 106.9998 15.02537854 50757
Source of the keplerian elements: AFSPC